Time,TemperatureF,DewpointF,PressureIn,WindDirection,WindDirectionDegrees,WindSpeedMPH,WindSpeedGustMPH,Humidity,HourlyPrecipIn,Conditions,Clouds,dailyrainin,SoftwareType,DateUTC
2013-05-08 00:02:00,53.0,-99.9,-100.00,South,186,5.0,-999.0,-999,-99.99,,,-99.99,,2013-05-08 07:02:00,
2013-05-08 00:11:00,53.0,-99.9,-100.00,South,186,5.0,-999.0,-999,-99.99,,,-99.99,,2013-05-08 07:11:00,
2013-05-08 00:20:00,52.0,-99.9,-100.00,SSW,199,3.0,-999.0,-999,-99.99,,,-99.99,,2013-05-08 07:20:00,
2013-05-08 01:02:00,52.0,-99.9,-100.00,SSW,199,3.0,-999.0,-999,-99.99,,,-99.99,,2013-05-08 08:02:00,
2013-05-08 01:12:00,52.0,-99.9,-100.00,SSW,199,3.0,-999.0,-999,-99.99,,,-99.99,,2013-05-08 08:12:00,
2013-05-08 01:20:00,52.0,-99.9,-100.00,South,186,5.0,-999.0,-999,-99.99,,,-99.99,,2013-05-08 08:20:00,
2013-05-08 02:02:00,52.0,-99.9,-100.00,South,186,5.0,-999.0,-999,-99.99,,,-99.99,,2013-05-08 09:02:00,
2013-05-08 02:11:00,52.0,-99.9,-100.00,South,186,5.0,-999.0,-999,-99.99,,,-99.99,,2013-05-08 09:11:00,
2013-05-08 02:20:00,52.0,-99.9,-100.00,SSW,195,5.0,-999.0,-999,-99.99,,,-99.99,,2013-05-08 09:20:00,
2013-05-08 03:03:00,52.0,-99.9,-100.00,SSW,195,5.0,-999.0,-999,-99.99,,,-99.99,,2013-05-08 10:03:00,
2013-05-08 03:12:00,52.0,-99.9,-100.00,SSW,195,5.0,-999.0,-999,-99.99,,,-99.99,,2013-05-08 10:12:00,
2013-05-08 03:20:00,52.0,-99.9,-100.00,SSW,211,6.0,-999.0,-999,-99.99,,,-99.99,,2013-05-08 10:20:00,
2013-05-08 04:02:00,52.0,-99.9,-100.00,SSW,211,6.0,-999.0,-999,-99.99,,,-99.99,,2013-05-08 11:02:00,
2013-05-08 04:12:00,52.0,-99.9,-100.00,SSW,211,6.0,-999.0,-999,-99.99,,,-99.99,,2013-05-08 11:12:00,
2013-05-08 04:20:00,53.0,-99.9,-100.00,South,171,2.0,-999.0,-999,-99.99,,,-99.99,,2013-05-08 11:20:00,
2013-05-08 05:02:00,53.0,-99.9,-100.00,South,171,2.0,-999.0,-999,-99.99,,,-99.99,,2013-05-08 12:02:00,
2013-05-08 05:11:00,53.0,-99.9,-100.00,South,171,2.0,-999.0,-999,-99.99,,,-99.99,,2013-05-08 12:11:00,
2013-05-08 05:20:00,53.0,-99.9,-100.00,South,191,6.0,-999.0,-999,-99.99,,,-99.99,,2013-05-08 12:20:00,
2013-05-08 06:01:00,53.0,-99.9,-100.00,South,191,6.0,-999.0,-999,-99.99,,,-99.99,,2013-05-08 13:01:00,
2013-05-08 06:12:00,53.0,-99.9,-100.00,South,191,6.0,-999.0,-999,-99.99,,,-99.99,,2013-05-08 13:12:00,
2013-05-08 06:20:00,52.0,-99.9,-100.00,SSW,198,3.0,-999.0,-999,-99.99,,,-99.99,,2013-05-08 13:20:00,
2013-05-08 07:02:00,52.0,-99.9,-100.00,SSW,198,3.0,-999.0,-999,-99.99,,,-99.99,,2013-05-08 14:02:00,
2013-05-08 07:12:00,52.0,-99.9,-100.00,SSW,198,3.0,-999.0,-999,-99.99,,,-99.99,,2013-05-08 14:12:00,
2013-05-08 08:20:00,53.0,-99.9,-100.00,SSW,192,3.0,-999.0,-999,-99.99,,,-99.99,,2013-05-08 15:20:00,
2013-05-08 09:03:00,53.0,-99.9,-100.00,SSW,192,3.0,-999.0,-999,-99.99,,,-99.99,,2013-05-08 16:03:00,
2013-05-08 09:13:00,53.0,-99.9,-100.00,SSW,192,3.0,-999.0,-999,-99.99,,,-99.99,,2013-05-08 16:13:00,
2013-05-08 09:20:00,53.0,-99.9,-100.00,SSW,200,2.0,-999.0,-999,-99.99,,,-99.99,,2013-05-08 16:20:00,
2013-05-08 10:02:00,53.0,-99.9,-100.00,SSW,200,2.0,-999.0,-999,-99.99,,,-99.99,,2013-05-08 17:02:00,
2013-05-08 10:12:00,53.0,-99.9,-100.00,SSW,200,2.0,-999.0,-999,-99.99,,,-99.99,,2013-05-08 17:12:00,
2013-05-08 10:20:00,53.0,-99.9,-100.00,SE,136,6.0,-999.0,-999,-99.99,,,-99.99,,2013-05-08 17:20:00,
2013-05-08 11:02:00,53.0,-99.9,-100.00,SE,136,6.0,-999.0,-999,-99.99,,,-99.99,,2013-05-08 18:02:00,
2013-05-08 11:12:00,53.0,-99.9,-100.00,SE,136,6.0,-999.0,-999,-99.99,,,-99.99,,2013-05-08 18:12:00,
2013-05-08 11:20:00,54.0,-99.9,-100.00,SE,133,0.0,-999.0,-999,-99.99,,,-99.99,,2013-05-08 18:20:00,
2013-05-08 12:02:00,54.0,-99.9,-100.00,SE,133,0.0,-999.0,-999,-99.99,,,-99.99,,2013-05-08 19:02:00,
2013-05-08 12:11:00,54.0,-99.9,-100.00,SE,133,0.0,-999.0,-999,-99.99,,,-99.99,,2013-05-08 19:11:00,
2013-05-08 12:20:00,55.0,-99.9,-100.00,SE,143,2.0,-999.0,-999,-99.99,,,-99.99,,2013-05-08 19:20:00,
2013-05-08 13:02:00,55.0,-99.9,-100.00,SE,143,2.0,-999.0,-999,-99.99,,,-99.99,,2013-05-08 20:02:00,
2013-05-08 13:12:00,55.0,-99.9,-100.00,SE,143,2.0,-999.0,-999,-99.99,,,-99.99,,2013-05-08 20:12:00,
2013-05-08 13:20:00,55.0,-99.9,-100.00,SE,142,5.0,-999.0,-999,-99.99,,,-99.99,,2013-05-08 20:20:00,
2013-05-08 14:02:00,55.0,-99.9,-100.00,SE,142,5.0,-999.0,-999,-99.99,,,-99.99,,2013-05-08 21:02:00,
2013-05-08 14:12:00,55.0,-99.9,-100.00,SE,142,5.0,-999.0,-999,-99.99,,,-99.99,,2013-05-08 21:12:00,
2013-05-08 14:20:00,56.0,-99.9,-100.00,SE,141,6.0,-999.0,-999,-99.99,,,-99.99,,2013-05-08 21:20:00,
2013-05-08 15:03:00,56.0,-99.9,-100.00,SE,141,6.0,-999.0,-999,-99.99,,,-99.99,,2013-05-08 22:03:00,
2013-05-08 15:12:00,56.0,-99.9,-100.00,SE,141,6.0,-999.0,-999,-99.99,,,-99.99,,2013-05-08 22:12:00,
2013-05-08 15:20:00,56.0,-99.9,-100.00,East,98,2.0,-999.0,-999,-99.99,,,-99.99,,2013-05-08 22:20:00,
2013-05-08 16:02:00,56.0,-99.9,-100.00,East,98,2.0,-999.0,-999,-99.99,,,-99.99,,2013-05-08 23:02:00,
2013-05-08 16:12:00,56.0,-99.9,-100.00,East,98,2.0,-999.0,-999,-99.99,,,-99.99,,2013-05-08 23:12:00,
2013-05-08 16:20:00,57.0,-99.9,-100.00,NE,51,9.0,-999.0,-999,-99.99,,,-99.99,,2013-05-08 23:20:00,
2013-05-08 17:02:00,57.0,-99.9,-100.00,NE,51,9.0,-999.0,-999,-99.99,,,-99.99,,2013-05-09 00:02:00,
2013-05-08 17:12:00,57.0,-99.9,-100.00,NE,51,9.0,-999.0,-999,-99.99,,,-99.99,,2013-05-09 00:12:00,
2013-05-08 17:20:00,60.0,-99.9,-100.00,NE,46,7.0,-999.0,-999,-99.99,,,-99.99,,2013-05-09 00:20:00,
2013-05-08 18:02:00,60.0,-99.9,-100.00,NE,46,7.0,-999.0,-999,-99.99,,,-99.99,,2013-05-09 01:02:00,
2013-05-08 18:12:00,60.0,-99.9,-100.00,NE,46,7.0,-999.0,-999,-99.99,,,-99.99,,2013-05-09 01:12:00,
2013-05-08 18:20:00,59.0,-99.9,-100.00,NW,308,2.0,-999.0,-999,-99.99,,,-99.99,,2013-05-09 01:20:00,
2013-05-08 19:02:00,59.0,-99.9,-100.00,NW,308,2.0,-999.0,-999,-99.99,,,-99.99,,2013-05-09 02:02:00,
2013-05-08 19:12:00,59.0,-99.9,-100.00,NW,308,2.0,-999.0,-999,-99.99,,,-99.99,,2013-05-09 02:12:00,
2013-05-08 19:20:00,59.0,-99.9,-100.00,WNW,296,2.0,-999.0,-999,-99.99,,,-99.99,,2013-05-09 02:20:00,
2013-05-08 20:02:00,59.0,-99.9,-100.00,WNW,296,2.0,-999.0,-999,-99.99,,,-99.99,,2013-05-09 03:02:00,
2013-05-08 20:11:00,59.0,-99.9,-100.00,WNW,296,2.0,-999.0,-999,-99.99,,,-99.99,,2013-05-09 03:11:00,
2013-05-08 20:20:00,59.0,-99.9,-100.00,North,0,0.0,-999.0,-999,-99.99,,,-99.99,,2013-05-09 03:20:00,
2013-05-08 21:03:00,59.0,-99.9,-100.00,North,0,0.0,-999.0,-999,-99.99,,,-99.99,,2013-05-09 04:03:00,
2013-05-08 21:13:00,59.0,-99.9,-100.00,North,0,0.0,-999.0,-999,-99.99,,,-99.99,,2013-05-09 04:13:00,
2013-05-08 21:20:00,56.0,-99.9,-100.00,North,0,0.0,-999.0,-999,-99.99,,,-99.99,,2013-05-09 04:20:00,
2013-05-08 22:02:00,56.0,-99.9,-100.00,North,0,0.0,-999.0,-999,-99.99,,,-99.99,,2013-05-09 05:02:00,
2013-05-08 22:12:00,56.0,-99.9,-100.00,North,0,0.0,-999.0,-999,-99.99,,,-99.99,,2013-05-09 05:12:00,
2013-05-08 22:20:00,54.0,-99.9,-100.00,SSW,210,1.0,-999.0,-999,-99.99,,,-99.99,,2013-05-09 05:20:00,
2013-05-08 23:02:00,54.0,-99.9,-100.00,SSW,210,1.0,-999.0,-999,-99.99,,,-99.99,,2013-05-09 06:02:00,
2013-05-08 23:12:00,54.0,-99.9,-100.00,SSW,210,1.0,-999.0,-999,-99.99,,,-99.99,,2013-05-09 06:12:00,
2013-05-08 23:20:00,55.0,-99.9,-100.00,SE,144,5.0,-999.0,-999,-99.99,,,-99.99,,2013-05-09 06:20:00,